Regional Weather Roundup
Issued by NWS Kansas City/Pleasant Hill, MO

Home | Current Version | Previous Version | Graphics & Text | Print | Product List | Glossary Off
Versions: 1 2 3 4 5 6 7 8 9 10 11 12 13 14 15 16 17 18 19 20 21 22 23 24 25 26 27 28 29 30 31 32 33 34 35 36 37 38 39 40 41 42 43 44 45 46 47 48 49 50

000
ASUS43 KEAX 210310
RWREAX

WEATHER ROUNDUP FOR EASTERN KANSAS AND NORTHWEST MISSOURI
NATIONAL WEATHER SERVICE KANSAS CITY/PLEASANT HILL MO
1000 PM CDT SUN APR 20 2014

KSZ040-057-103>105-MOZ028-029-037-043-210400-
...KANSAS CITY METROPOLITAN AREA...

CITY           SKY/WX    TMP DP  RH WIND       PRES   REMARKS
K.C. INTL      CLOUDY    66  54  65 S8        30.02R
K.C. DOWNTOWN  CLOUDY    69  54  58 S5        30.01R
LEES SUMMIT    CLOUDY    68  52  56 S7        30.04R
OLATHE - IXD   CLOUDY    66  54  65 SE6       30.03R
OLATHE - OJC   CLOUDY    65  53  65 S6        30.02R
LAWRENCE       CLOUDY    66  55  67 E5        30.02R

$$

MOZ001>008-011>017-020>025-030>033-038>040-044>046-053-054-210400-
...NORTHERN AND CENTRAL MISSOURI...

CITY           SKY/WX    TMP DP  RH WIND       PRES   REMARKS
ST. JOSEPH     CLOUDY    64  55  72 S7        30.01R
MOSBY          LGT RAIN  70  54  56 CALM      30.03R
WARRENSBURG    CLOUDY   N/A N/A N/A S5        30.04R
WHITEMAN AFB   CLOUDY    66  52  59 SW5       30.04R
CLINTON        CLOUDY    64  57  77 CALM      30.05R
SEDALIA        CLOUDY    69  54  58 CALM      30.04R
WARSAW         NOT AVBL
MARSHALL         N/A     72  55  56 SW3       30.04S
CHILLICOTHE      N/A     71  51  49 S9        30.03R
MOBERLY        CLOUDY    70  48  46 CALM      30.03S
KIRKSVILLE     CLOUDY    67  48  50 SW6       30.02R

$$

MOZ041-047>049-056>058-063>065-088>090-097-210400-
...EASTERN AND SOUTHERN MISSOURI...

CITY           SKY/WX    TMP DP  RH WIND       PRES   REMARKS
ST. LOUIS INTL MOCLDY    74  43  32 S13       30.05S
SPIRIT OF STL  CLOUDY    72  43  35 SE6       30.03S
COLUMBIA       CLOUDY    70  49  47 S3        30.03S
JEFFERSON CITY CLOUDY    70  51  51 CALM      30.02S
MEXICO         CLOUDY    68  50  52 S5        30.03S
HANNIBAL       PTCLDY    68  43  40 S3        30.03S
ROLLA          PTCLDY    65  48  54 S7        30.04S
LEBANON        MOCLDY    66  50  55 CALM      30.07R
OSAGE BEACH    MOCLDY    66  48  52 CALM      30.06R
SPRINGFIELD    MOCLDY    64  51  62 SW3       30.07R
BRANSON        MOCLDY    66  48  52 CALM      30.10R
NEVADA         MOCLDY    63  54  72 S5        30.06R
JOPLIN         MOCLDY    66  52  60 SE7       30.05S
WEST PLAINS    CLOUDY    67  46  47 SE5       30.09R

$$

IAZ060-094-KSZ022-034>040-054-083-096-NEZ052-066-093-210400-
...KANSAS...SOUTHEAST NEBRASKA AND IOWA...

CITY           SKY/WX    TMP DP  RH WIND       PRES   REMARKS
TOPEKA         LGT RAIN  66  56  70 CALM      30.01R
MANHATTAN      CLOUDY    65  58  78 CALM      29.99R
EMPORIA        CLOUDY    63  54  72 SE6       30.00R
CHANUTE        CLOUDY    65  54  67 SE8       30.02R
WICHITA        MOCLDY    65  54  67 S13       29.98S
OMAHA          LGT RAIN  64  57  78 S8        29.96R
LINCOLN        CLOUDY    64  58  80 S6        29.97R
LAMONI         MOCLDY    67  53  61 S8        29.99R
DES MOINES     MOCLDY    71  53  52 S8        29.96R

$$




USA.gov is the U.S. government's official web portal to all federal, state and local government web resources and services.